Location: Newark
(25.0000°N, 73.5000°E)
Time: 14:55:01
(UTC+00:00)

RS-15 - Pass Details

Date: 23 February 2020
Orbit: 1898 x 2146 km, 64.8° (Epoch: 31 March)

Event Time Altitude Azimuth Distance (km) Brightness Sun altitude
Rises 21:54:10 0° 350° (N) 5,318 10.4 -50.2°
Reaches altitude 10° 22:00:25 10° 16° (NNE) 4,358 10.0 -48.9°
Maximum altitude 22:05:14 13° 42° (NE) 4,124 10.1 -47.8°
Drops below altitude 10° 22:10:05 10° 69° (ENE) 4,437 10.4 -46.7°
Sets 22:16:28 0° 94° (E) 5,494 11.1 -45.3°
